Orbital Elements at Epoch 2459000.5 (2020-May-31.0) TDB
Reference: JPL 6 (heliocentric ecliptic J2000)
Element | Value | Uncertainty (1-sigma) | Units |
e | .1607472791273528 | 2.0177e-05 | |
a | 39.36329718358463 | 0.0012 | au |
q | 33.03575426384202 | 0.0015875 | au |
i | 22.93424725929958 | 0.00012877 | deg |
node | 334.5010195018442 | 5.5797e-05 | deg |
peri | 15.99123241491426 | 0.013782 | deg |
M | 153.3919165325379 | 0.018634 | deg |
tp | 2420564.728452968193 (1915-Mar-08.22845297) | 3.6935 | TDB |
period | 90206.04259805527 246.97 | 4.125 0.01129 | d yr |
n | .003990863468028484 | 1.825e-07 | deg/d |
Q | 45.69084010332725 | 0.0013929 | au |
|
| | Orbit Determination Parameters
Additional Information
|